Rotterdam, Netherlands

9:31 PM CEST on August 17, 2017 (GMT +0200)
Rotterdam

Weather History for EHRD - October, 2012

Change the Weather History Date:

Wednesday, October 3, 2012

  Actual Average Record
Temperature  
Mean Temperature 54 °F -  
Max Temperature 58 °F 55 °F 75 °F (2010)
Min Temperature 51 °F 44 °F 37 °F (2015)
Degree Days  
Heating Degree Days 10    
Growing Degree Days 4 (Base 50)    
Moisture  
Dew Point 53 °F    
Average Humidity 88    
Maximum Humidity 100    
Minimum Humidity 76    
Precipitation  
Precipitation 0.12 in - - ()
Sea Level Pressure  
Sea Level Pressure 29.74 in    
Wind  
Wind Speed 14 mph ()    
Max Wind Speed 24 mph    
Max Gust Speed 28 mph    
Visibility 7.2 miles    
Events Rain    
Averages and records for this station are not official NWS values.
T = Trace of Precipitation, MM = Missing Value Source: Averaged Metar Reports

Daily Weather History Graph

Daily Weather History Graph

Search for Another Location

Airport or City:

Trip Planner

Search our weather history database for the weather conditions in past years. The results will help you decide how hot, cold, wet, or windy it might be!

Date:

Astronomy

Oct. 03, 2012 Rise Set
Actual Time 7:46 AM CEST 7:14 PM CEST
Civil Twilight 7:13 AM CEST 7:47 PM CEST
Nautical Twilight 6:34 AM CEST 8:26 PM CEST
Astronomical Twilight 5:54 AM CEST 9:06 PM CEST
Moon 8:25 PM CEST (10/3) 11:24 AM CEST (10/3)
Length of Visible Light 12h 34m
Length of Day
11h 27m
Waning Gibbous, 90% of the Moon is Illuminated
Oct 3
Waning Gibbous
Oct 8
Last Quarter
Oct 15
New
Oct 22
First Quarter
Oct 29
Full

Hourly Weather History & Observations

Time (CEST) Temp. Dew Point Humidity Pressure Visibility Wind Dir Wind Speed Gust Speed Precip Events Conditions
12:25 AM 57.2 °F 51.8 °F 82% 29.80 in 6.2 mi South 12.7 mph - N/A   Unknown
12:55 AM 59.0 °F 51.8 °F 77% 29.80 in 6.2 mi South 15.0 mph - N/A   Unknown
1:25 AM 59.0 °F 51.8 °F 77% 29.80 in 6.2 mi South 17.3 mph - N/A   Unknown
1:55 AM 59.0 °F 51.8 °F 77% 29.80 in 6.2 mi South 15.0 mph - N/A Rain Light Rain
2:00 AM 58 °F 53 °F 78% 29.81 in 8 mi SSW 15.7 mph - - Rain Light Rain Showers
2:25 AM 57.2 °F 53.6 °F 88% 29.80 in 6.2 mi SSW 13.8 mph - N/A Rain Light Drizzle
2:55 AM 57.2 °F 53.6 °F 88% 29.77 in 6.2 mi South 11.5 mph - N/A Rain Light Rain
3:25 AM 55.4 °F 53.6 °F 94% 29.77 in 6.2 mi South 13.8 mph - N/A Rain Light Rain
3:55 AM 55.4 °F 53.6 °F 94% 29.77 in 6.2 mi South 13.8 mph - N/A Rain Light Rain
4:25 AM 55.4 °F 55.4 °F 100% 29.77 in 3.7 mi SSW 16.1 mph - N/A Rain Light Rain
4:55 AM 55.4 °F 55.4 °F 100% 29.74 in 6.2 mi SSW 15.0 mph - N/A   Mostly Cloudy
5:00 AM 56 °F 54 °F 93% 29.76 in 19 mi SSW 13.4 mph - - Rain Rain
5:25 AM 57.2 °F 53.6 °F 88% 29.74 in 6.2 mi South 15.0 mph - N/A   Mostly Cloudy
5:55 AM 57.2 °F 53.6 °F 88% 29.74 in 6.2 mi South 16.1 mph - N/A   Overcast
6:25 AM 55.4 °F 53.6 °F 94% 29.74 in 6.2 mi South 16.1 mph - N/A   Scattered Clouds
6:55 AM 55.4 °F 53.6 °F 94% 29.71 in 6.2 mi South 15.0 mph - N/A   Mostly Cloudy
7:25 AM 57.2 °F 53.6 °F 88% 29.71 in 6.2 mi South 15.0 mph - N/A   Mostly Cloudy
7:55 AM 57.2 °F 53.6 °F 88% 29.71 in 6.2 mi SSW 17.3 mph - N/A   Light Drizzle
8:00 AM 56 °F 54 °F 89% 29.73 in 18 mi SSW 17.9 mph - - Rain Light Drizzle
8:25 AM 57.2 °F 53.6 °F 88% 29.71 in 6.2 mi SSW 17.3 mph - N/A Rain Light Rain
8:55 AM 55.4 °F 53.6 °F 94% 29.71 in 6.2 mi SSW 18.4 mph - N/A Rain Light Rain
9:25 AM 57.2 °F 53.6 °F 88% 29.71 in 6.2 mi South 16.1 mph - N/A Rain Light Rain
9:55 AM 57.2 °F 53.6 °F 88% 29.71 in 6.2 mi SSW 18.4 mph - N/A Rain Light Rain
10:25 AM 57.2 °F 53.6 °F 88% 29.71 in 4.3 mi SSW 24.2 mph - N/A Rain Light Rain
10:55 AM 55.4 °F 53.6 °F 94% 29.74 in 6.2 mi SW 16.1 mph - N/A Rain Light Rain Showers
11:00 AM 55 °F 54 °F 93% 29.75 in 7 mi SW 15.7 mph - - Rain Rain
11:25 AM 55.4 °F 53.6 °F 94% 29.74 in 6.2 mi SSW 13.8 mph - N/A Rain Rain Showers
11:55 AM 55.4 °F 55.4 °F 100% 29.74 in 6.2 mi South 11.5 mph - N/A   Partly Cloudy
12:25 PM 57.2 °F 53.6 °F 88% 29.74 in 6.2 mi SSW 13.8 mph - N/A   Overcast
12:55 PM 57.2 °F 53.6 °F 88% 29.74 in 6.2 mi SSW 17.3 mph - N/A   Overcast
1:25 PM 57.2 °F 53.6 °F 88% 29.74 in 6.2 mi WSW 13.8 mph - N/A   Overcast
1:55 PM 57.2 °F 53.6 °F 88% 29.74 in 6.2 mi WSW 15.0 mph - N/A Rain Drizzle
2:00 PM 58 °F 54 °F 80% 29.75 in 11 mi SW 17.9 mph - - Rain Drizzle
2:25 PM 57.2 °F 51.8 °F 82% 29.74 in 6.2 mi SW 18.4 mph - N/A   Mostly Cloudy
2:55 PM 57.2 °F 53.6 °F 88% 29.74 in 6.2 mi SW 15.0 mph - N/A   Mostly Cloudy
3:25 PM 57.2 °F 53.6 °F 88% 29.74 in 6.2 mi SSW 13.8 mph - N/A   Partly Cloudy
3:55 PM 57.2 °F 53.6 °F 88% 29.74 in 6.2 mi SSW 12.7 mph - N/A   Partly Cloudy
4:25 PM 57.2 °F 51.8 °F 82% 29.74 in 6.2 mi SSW 13.8 mph - N/A   Unknown
4:55 PM 57.2 °F 51.8 °F 82% 29.74 in 6.2 mi SW 13.8 mph - N/A   Partly Cloudy
5:00 PM 57 °F 51 °F 76% 29.75 in 15 mi SSW 15.7 mph - -   Partly Cloudy
5:25 PM 57.2 °F 51.8 °F 82% 29.74 in 6.2 mi SSW 12.7 mph - N/A   Partly Cloudy
5:55 PM 55.4 °F 53.6 °F 94% 29.74 in 6.2 mi SSW 12.7 mph - N/A   Mostly Cloudy
6:25 PM 57.2 °F 53.6 °F 88% 29.71 in 6.2 mi SSW 12.7 mph - N/A Rain Light Rain
6:55 PM 57.2 °F 53.6 °F 88% 29.71 in 6.2 mi SW 16.1 mph - N/A Rain Light Rain
7:25 PM 55.4 °F 48.2 °F 77% 29.71 in 6.2 mi SW 17.3 mph - N/A Rain Light Rain
7:55 PM 55.4 °F 50.0 °F 82% 29.71 in 6.2 mi SSW 15.0 mph - N/A   Light Drizzle
8:00 PM 55 °F 51 °F 80% 29.73 in 19 mi SSW 13.4 mph - - Rain Rain
8:25 PM 55.4 °F 51.8 °F 88% 29.71 in 6.2 mi SSW 15.0 mph - N/A   Partly Cloudy
8:55 PM 55.4 °F 48.2 °F 77% 29.71 in 6.2 mi SSW 12.7 mph - N/A   Unknown
9:25 PM 53.6 °F 48.2 °F 82% 29.71 in 6.2 mi SSW 15.0 mph - N/A Rain Light Rain
9:55 PM 53.6 °F 50.0 °F 88% 29.71 in 6.2 mi SSW 12.7 mph - N/A Rain Light Rain
10:25 PM 53.6 °F 50.0 °F 88% 29.71 in 6.2 mi SSW 12.7 mph - N/A Rain Light Rain
10:55 PM 53.6 °F 50.0 °F 88% 29.71 in 6.2 mi SSW 16.1 mph 27.6 mph N/A Rain Light Rain
11:00 PM 53 °F 51 °F 90% 29.73 in 11 mi SSW 15.7 mph - - Rain Light Rain
11:25 PM 51.8 °F 50.0 °F 94% 29.71 in 6.2 mi SSW 15.0 mph - N/A Rain Light Rain
11:55 PM 51.8 °F 50.0 °F 94% 29.71 in 6.2 mi South 10.4 mph - N/A   Mostly Cloudy